Regional Weather Roundup
Issued by NWS

Home | Current Version | Previous Version | Text Only | Print | Product List | Glossary On
Versions: 1 2 3 4 5 6 7 8 9 10 11 12 13 14 15 16 17 18 19 20 21 22 23 24 25 26 27 28 29 30 31 32 33 34 35 36 37 38 39 40 41 42 43 44 45 46 47 48 49 50
000
ASCA44 KEWX 251920
RWRMX

LATIN AMERICA AND CARIBBEAN REGIONAL WEATHER ROUNDUP
NATIONAL WEATHER SERVICE AUSTIN/SAN ANTONIO TX
200 PM CDT MON SEP 25 2017

NOTE: "FAIR" INDICATED FEW OR NO CLOUDS BELOW 12,000 FEET WITH NO
SIGNIFICANT WEATHER AND/OR OBSTRUCTIONS TO VISIBILITY.

BAJA CALIFORNIA

CITY           SKY/WX    TMP DP  RH WIND       PRES   REMARKS
LORETO         MOSUNNY   84  63  48 NE9       29.76F
LA PAZ         MOSUNNY   82  57  42 SW9       29.80F
MEXICALI       PTSUNNY   84  23  10 NW9       29.82F
S.J. DEL CABO  PTSUNNY   86  64  48 CALM      29.78F
TIJUANA        MOSUNNY   82  25  12 CALM      29.87F

NORTHWESTERN MEXICO

CITY           SKY/WX    TMP DP  RH WIND       PRES   REMARKS
CULIACAN       PTSUNNY   88  66  48 CALM      29.75F HX  90
DURANGO        PTSUNNY   72  55  56 E9        30.04F
GUAYMAS        SUNNY     86  55  35 S9        29.71S
HERMOSILLO     SUNNY     90  39  17 CALM      29.78F
CD. JUAREZ     SUNNY     81  37  21 W17       29.89F
LOS MOCHIS     SUNNY     88  54  31 W10       29.76F
OBREGON        SUNNY     90  43  19 SW5       29.73F

NORTHEASTERN MEXICO

CITY           SKY/WX    TMP DP  RH WIND       PRES   REMARKS
CHIHUAHUA      MOSUNNY   82  52  34 N7        29.91F
MATAMOROS      PTSUNNY   91  75  59 SE15      29.77F HX 102
MONCLOVA       PTSUNNY   82  55  39 E13       29.78F
MONTERREY      CLOUDY    84  68  58 E7        29.77F
NUEVO LAREDO   PTSUNNY   91  68  46 SE18      29.75F HX  95
PIEDRAS NEGRAS PTSUNNY   84  72  65 SE9       29.80F
REYNOSA        MOSUNNY   90  66  45 E9G21     29.74F HX  92
SALTILLO         N/A    N/A N/A N/A MISG        N/A
TORREON        PTSUNNY   82  64  54 CALM      29.86F
CD. VICTORIA   MOSUNNY   91  66  43 MISG      29.77F HX  94

WESTERN MEXICO

CITY           SKY/WX    TMP DP  RH WIND       PRES   REMARKS
AGUASCALIENTES PTSUNNY   70  57  64 SE5       30.10F
COLIMA         PTSUNNY   77  72  83 SW6       29.95F
DEL BAJIO      PTSUNNY   75  61  60 S5        30.14F
GUADALAJARA    PTSUNNY   70  64  83 E8        30.04F
MANZANILLO     MOSUNNY   90  79  70 SW12      29.78  HX 105
MAZATLAN       CLOUDY    79  77  94 SE5       29.77F
P. VALLARTA    CLOUDY    82  77  83 W9        29.79F HX  91
URUAPAN        PTSUNNY   72  64  78 SW14      30.04F
ZACATECAS      PTSUNNY   72  57  60 SW10      30.10F

CENTRAL MEXICO

CITY           SKY/WX    TMP DP  RH WIND       PRES   REMARKS
CUERNAVACA     PTSUNNY   77  66  69 SE7       29.99F
MEXICO CITY    PTSUNNY   70  55  60 NE6       30.14F
MORELIA        PTSUNNY   77  59  53 S10       30.06F
POZA RICA      MOSUNNY   90  75  62 E7        29.78F HX 100
PUEBLA         PTSUNNY   70  57  64 S13       30.16F
QUERETARO      PTSUNNY   72  57  60 NW3       30.13F
S. LUIS POTOSI PTSUNNY   73  55  53 N8        30.05F
TAMPICO        PTSUNNY   79  79 100 CALM      29.78F
TOLUCA         PTSUNNY   68  52  56 S10       30.20F

SOUTHERN MEXICO

CITY           SKY/WX    TMP DP  RH WIND       PRES   REMARKS
ACAPULCO       PTSUNNY   88  79  74 W6        29.76F HX 102
B. DE HUATULCO   N/A    N/A N/A N/A MISG        N/A
OAXACA         MOSUNNY   77  61  57 SE5       30.05F
P. ESCONDIDO   PTSUNNY   82  82 100 S8        29.86  HX  97
VERACRUZ       MOSUNNY   91  81  70 SE5       29.74F HX 110
ZIHUATANEJO    MOSUNNY   90  72  55 SW8       29.77F HX  96

YUCATAN PENINSULA

CITY           SKY/WX    TMP DP  RH WIND       PRES   REMARKS
CAMPECHE       MOSUNNY   91  77  62 E16       29.72F HX 105
CANCUN         PTSUNNY   84  81  89 SE15      29.84F HX  98
CHETUMAL       PTSUNNY   88  77  70 E16       29.77F HX 100
CD. DEL CARMEN MOSUNNY  N/A N/A N/A E5        29.75F
COZUMEL        CLOUDY    79  75  89 S7        29.83F
MERIDA         PTSUNNY   91  72  52 E9        29.77F HX  98
MINATITLAN     MOSUNNY   90  81  74 N6        29.72F HX 108
TAPACHULA      PTSUNNY   86  77  74 S6        29.76F HX  97
TUX. GUTIERREZ MOSUNNY   86  72  62 CALM      29.81F HX  92
VILLAHERMOSA   PTSUNNY   88  77  70 CALM      29.76F HX 100

CENTRAL AMERICA

CITY           SKY/WX    TMP DP  RH WIND       PRES   REMARKS
BELIZE CITY    MOSUNNY   90  81  74 SE7       29.74F HX 108
MANAGUA        PTCLDY    82  77  83 W12       29.77F THUNDER HX  91

CARIBBEAN

CITY           SKY/WX    TMP DP  RH WIND       PRES   REMARKS
ARUBA          MOSUNNY   91  77  62 E21       29.80S HX 105
CURACAO        MOSUNNY   88  75  66 E18       29.83F HX  97
KINGSTON       PTSUNNY   91  79  66 SE18      29.83F HX 107
NASSAU         PTSUNNY   90  77  66 W5        29.87F HX 102
SAN JUAN       MOSUNNY   91  73  55 SE10      29.91  HX 100
SANTO DOMINGO  MOSUNNY   88  79  74 SE7       29.89S HX 102
ST. KITTS      MOSUNNY   84  79  84 E10       29.94S HX  96
ST. MAARTEN    PTSUNNY  N/A N/A N/A E16       29.89F

$$




USA.gov is the U.S. government's official web portal to all federal, state and local government web resources and services.